Year,Month,Day,Hour,Minute,Value (Times are PST for temperature in C)
2011,08,24,00,00,13.00
2011,08,24,00,01,13.00
2011,08,24,00,02,13.00
2011,08,24,00,03,13.00
2011,08,24,00,04,12.90
2011,08,24,00,05,12.90
2011,08,24,00,06,12.90
2011,08,24,00,07,12.90
2011,08,24,00,08,12.80
2011,08,24,00,09,12.80
2011,08,24,00,10,12.80
2011,08,24,00,11,12.80
2011,08,24,00,12,12.80
2011,08,24,00,13,12.80
2011,08,24,00,14,12.80
2011,08,24,00,15,12.80
2011,08,24,00,16,12.80
2011,08,24,00,17,12.80
2011,08,24,00,18,12.80
2011,08,24,00,19,12.80
2011,08,24,00,20,12.80
2011,08,24,00,21,12.80
2011,08,24,00,22,12.80
2011,08,24,00,23,12.80
2011,08,24,00,24,12.80
2011,08,24,00,25,12.80
2011,08,24,00,26,12.80
2011,08,24,00,27,12.80
2011,08,24,00,28,12.80
2011,08,24,00,29,12.80
2011,08,24,00,30,12.80
2011,08,24,00,31,12.80
2011,08,24,00,32,12.80
2011,08,24,00,33,12.70
2011,08,24,00,34,12.70
2011,08,24,00,35,12.70
2011,08,24,00,36,12.70
2011,08,24,00,37,12.70
2011,08,24,00,38,12.70
2011,08,24,00,39,12.70
2011,08,24,00,40,12.60
2011,08,24,00,41,12.60
2011,08,24,00,42,12.60
2011,08,24,00,43,12.60
2011,08,24,00,44,12.50
2011,08,24,00,45,12.50
2011,08,24,00,46,12.50
2011,08,24,00,47,12.50
2011,08,24,00,48,12.50
2011,08,24,00,49,12.50
2011,08,24,00,50,12.50
2011,08,24,00,51,12.50
2011,08,24,00,52,12.40
2011,08,24,00,53,12.40
2011,08,24,00,54,12.40
2011,08,24,00,55,12.40
2011,08,24,00,56,12.40
2011,08,24,00,57,12.40
2011,08,24,00,58,12.40
2011,08,24,00,59,12.40
2011,08,24,01,00,12.40
2011,08,24,01,01,12.30
2011,08,24,01,02,12.30
2011,08,24,01,03,12.30
2011,08,24,01,04,12.30
2011,08,24,01,05,12.30
2011,08,24,01,06,12.30
2011,08,24,01,07,12.30
2011,08,24,01,08,12.30
2011,08,24,01,09,12.30
2011,08,24,01,10,12.30
2011,08,24,01,11,12.30
2011,08,24,01,12,12.30
2011,08,24,01,13,12.30
2011,08,24,01,14,12.30
2011,08,24,01,15,12.30
2011,08,24,01,16,12.30
2011,08,24,01,17,12.30
2011,08,24,01,18,12.30
2011,08,24,01,19,12.30
2011,08,24,01,20,12.30
2011,08,24,01,21,12.30
2011,08,24,01,22,12.20
2011,08,24,01,23,12.20
2011,08,24,01,24,12.20
2011,08,24,01,25,12.20
2011,08,24,01,26,12.20
2011,08,24,01,27,12.20
2011,08,24,01,28,12.20
2011,08,24,01,29,12.10
2011,08,24,01,30,12.10
2011,08,24,01,31,12.10
2011,08,24,01,32,12.10
2011,08,24,01,33,12.10
2011,08,24,01,34,12.10
2011,08,24,01,35,12.10
2011,08,24,01,36,12.10
2011,08,24,01,37,12.10
2011,08,24,01,38,12.10
2011,08,24,01,39,12.10
2011,08,24,01,40,12.00
2011,08,24,01,41,12.00
2011,08,24,01,42,12.00
2011,08,24,01,43,12.00
2011,08,24,01,44,12.00
2011,08,24,01,45,12.00
2011,08,24,01,46,12.00
2011,08,24,01,47,12.00
2011,08,24,01,48,12.00
2011,08,24,01,49,12.00
2011,08,24,01,50,12.00
2011,08,24,01,51,12.00
2011,08,24,01,52,12.00
2011,08,24,01,53,12.00
2011,08,24,01,54,12.00
2011,08,24,01,55,12.00
2011,08,24,01,56,12.00
2011,08,24,01,57,12.00
2011,08,24,01,58,12.00
2011,08,24,01,59,12.00
2011,08,24,02,00,12.00
2011,08,24,02,01,12.00
2011,08,24,02,02,11.90
2011,08,24,02,03,11.90
2011,08,24,02,04,11.90
2011,08,24,02,05,11.90
2011,08,24,02,06,11.90
2011,08,24,02,07,11.90
2011,08,24,02,08,11.90
2011,08,24,02,09,11.90
2011,08,24,02,10,11.90
2011,08,24,02,11,11.90
2011,08,24,02,12,11.90
2011,08,24,02,13,11.90
2011,08,24,02,14,11.90
2011,08,24,02,15,11.90
2011,08,24,02,16,11.90
2011,08,24,02,17,11.90
2011,08,24,02,18,11.90
2011,08,24,02,19,11.90
2011,08,24,02,20,11.90
2011,08,24,02,21,11.90
2011,08,24,02,22,11.90
2011,08,24,02,23,11.90
2011,08,24,02,24,11.90
2011,08,24,02,25,11.90
2011,08,24,02,26,11.90
2011,08,24,02,27,11.90
2011,08,24,02,28,11.90
2011,08,24,02,29,11.90
2011,08,24,02,30,11.90
2011,08,24,02,31,11.80
2011,08,24,02,32,11.80
2011,08,24,02,33,11.80
2011,08,24,02,34,11.80
2011,08,24,02,35,11.80
2011,08,24,02,36,11.80
2011,08,24,02,37,11.80
2011,08,24,02,38,11.80
2011,08,24,02,39,11.80
2011,08,24,02,40,11.80
2011,08,24,02,41,11.80
2011,08,24,02,42,11.80
2011,08,24,02,43,11.80
2011,08,24,02,44,11.80
2011,08,24,02,45,11.80
2011,08,24,02,46,11.80
2011,08,24,02,47,11.80
2011,08,24,02,48,11.80
2011,08,24,02,49,11.80
2011,08,24,02,50,11.80
2011,08,24,02,51,11.80
2011,08,24,02,52,11.80
2011,08,24,02,53,11.80
2011,08,24,02,54,11.80
2011,08,24,02,55,11.80
2011,08,24,02,56,11.80
2011,08,24,02,57,11.80
2011,08,24,02,58,11.80
2011,08,24,02,59,11.80
2011,08,24,03,00,11.80
2011,08,24,03,01,11.80
2011,08,24,03,02,11.80
2011,08,24,03,03,11.80
2011,08,24,03,04,11.80
2011,08,24,03,05,11.80
2011,08,24,03,06,11.80
2011,08,24,03,07,11.80
2011,08,24,03,08,11.80
2011,08,24,03,09,11.80
2011,08,24,03,10,11.80
2011,08,24,03,11,11.80
2011,08,24,03,12,11.80
2011,08,24,03,13,11.80
2011,08,24,03,14,11.80
2011,08,24,03,15,11.80
2011,08,24,03,16,11.80
2011,08,24,03,17,11.80
2011,08,24,03,18,11.80
2011,08,24,03,19,11.80
2011,08,24,03,20,11.80
2011,08,24,03,21,11.80
2011,08,24,03,22,11.80
2011,08,24,03,23,11.80
2011,08,24,03,24,11.80
2011,08,24,03,25,11.80
2011,08,24,03,26,11.80
2011,08,24,03,27,11.80
2011,08,24,03,28,11.80
2011,08,24,03,29,11.80
2011,08,24,03,30,11.80
2011,08,24,03,31,11.80
2011,08,24,03,32,11.80
2011,08,24,03,33,11.80
2011,08,24,03,34,11.80
2011,08,24,03,35,11.80
2011,08,24,03,36,11.80
2011,08,24,03,37,11.80
2011,08,24,03,38,11.80
2011,08,24,03,39,11.80
2011,08,24,03,40,11.80
2011,08,24,03,41,11.80
2011,08,24,03,42,11.80
2011,08,24,03,43,11.80
2011,08,24,03,44,11.80
2011,08,24,03,45,11.80
2011,08,24,03,46,11.80
2011,08,24,03,47,11.80
2011,08,24,03,48,11.80
2011,08,24,03,49,11.80
2011,08,24,03,50,11.80
2011,08,24,03,51,11.80
2011,08,24,03,52,11.80
2011,08,24,03,53,11.70
2011,08,24,03,54,11.70
2011,08,24,03,55,11.70
2011,08,24,03,56,11.70
2011,08,24,03,57,11.70
2011,08,24,03,58,11.70
2011,08,24,03,59,11.70
2011,08,24,04,00,11.70
2011,08,24,04,01,11.70
2011,08,24,04,02,11.70
2011,08,24,04,03,11.70
2011,08,24,04,04,11.70
2011,08,24,04,05,11.70
2011,08,24,04,06,11.70
2011,08,24,04,07,11.70
2011,08,24,04,08,11.70
2011,08,24,04,09,11.70
2011,08,24,04,10,11.70
2011,08,24,04,11,11.70
2011,08,24,04,12,11.70
2011,08,24,04,13,11.70
2011,08,24,04,14,11.80
2011,08,24,04,15,11.80
2011,08,24,04,16,11.80
2011,08,24,04,17,11.80
2011,08,24,04,18,11.80
2011,08,24,04,19,11.80
2011,08,24,04,20,11.80
2011,08,24,04,21,11.80
2011,08,24,04,22,11.80
2011,08,24,04,23,11.80
2011,08,24,04,24,11.80
2011,08,24,04,25,11.80
2011,08,24,04,26,11.80
2011,08,24,04,27,11.80
2011,08,24,04,28,11.80
2011,08,24,04,29,11.80
2011,08,24,04,30,11.80
2011,08,24,04,31,11.80
2011,08,24,04,32,11.80
2011,08,24,04,33,11.90
2011,08,24,04,34,11.90
2011,08,24,04,35,11.90
2011,08,24,04,36,11.90
2011,08,24,04,37,11.90
2011,08,24,04,38,11.90
2011,08,24,04,39,11.90
2011,08,24,04,40,12.00
2011,08,24,04,41,12.00
2011,08,24,04,42,12.00
2011,08,24,04,43,12.10
2011,08,24,04,44,12.10
2011,08,24,04,45,12.10
2011,08,24,04,46,12.20
2011,08,24,04,47,12.20
2011,08,24,04,48,12.20
2011,08,24,04,49,12.20
2011,08,24,04,50,12.30
2011,08,24,04,51,12.30
2011,08,24,04,52,12.30
2011,08,24,04,53,12.30
2011,08,24,04,54,12.30
2011,08,24,04,55,12.30
2011,08,24,04,56,12.30
2011,08,24,04,57,12.30
2011,08,24,04,58,12.30
2011,08,24,04,59,12.30
2011,08,24,05,00,12.40
2011,08,24,05,01,12.40
2011,08,24,05,02,12.40
2011,08,24,05,03,12.40
2011,08,24,05,04,12.40
2011,08,24,05,05,12.40
2011,08,24,05,06,12.50
2011,08,24,05,07,12.50
2011,08,24,05,08,12.50
2011,08,24,05,09,12.50
2011,08,24,05,10,12.50
2011,08,24,05,11,12.50
2011,08,24,05,12,12.50
2011,08,24,05,13,12.50
2011,08,24,05,14,12.50
2011,08,24,05,15,12.60
2011,08,24,05,16,12.60
2011,08,24,05,17,12.60
2011,08,24,05,18,12.60
2011,08,24,05,19,12.60
2011,08,24,05,20,12.60
2011,08,24,05,21,12.60
2011,08,24,05,22,12.70
2011,08,24,05,23,12.70
2011,08,24,05,24,12.70
2011,08,24,05,25,12.70
2011,08,24,05,26,12.70
2011,08,24,05,27,12.70
2011,08,24,05,28,12.70
2011,08,24,05,29,12.80
2011,08,24,05,30,12.80
2011,08,24,05,31,12.80
2011,08,24,05,32,12.80
2011,08,24,05,33,12.80
2011,08,24,05,34,12.80
2011,08,24,05,35,12.80
2011,08,24,05,36,12.80
2011,08,24,05,37,12.80
2011,08,24,05,38,12.80
2011,08,24,05,39,12.80
2011,08,24,05,40,12.80
2011,08,24,05,41,12.80
2011,08,24,05,42,12.80
2011,08,24,05,43,12.80
2011,08,24,05,44,12.80
2011,08,24,05,45,12.80
2011,08,24,05,46,12.80
2011,08,24,05,47,12.90
2011,08,24,05,48,12.90
2011,08,24,05,49,12.90
2011,08,24,05,50,12.90
2011,08,24,05,51,12.90
2011,08,24,05,52,12.90
2011,08,24,05,53,12.90
2011,08,24,05,54,12.90
2011,08,24,05,55,12.90
2011,08,24,05,56,12.90
2011,08,24,05,57,12.90
2011,08,24,05,58,12.90
2011,08,24,05,59,12.90
2011,08,24,06,00,12.90
2011,08,24,06,01,13.00
2011,08,24,06,02,13.00
2011,08,24,06,03,13.00
2011,08,24,06,04,13.00
2011,08,24,06,05,13.00
2011,08,24,06,06,13.00
2011,08,24,06,07,13.00
2011,08,24,06,08,13.00
2011,08,24,06,09,13.00
2011,08,24,06,10,13.00
2011,08,24,06,11,13.00
2011,08,24,06,12,13.00
2011,08,24,06,13,13.00
2011,08,24,06,14,13.00
2011,08,24,06,15,13.10
2011,08,24,06,16,13.10
2011,08,24,06,17,13.10
2011,08,24,06,18,13.10
2011,08,24,06,19,13.10
2011,08,24,06,20,13.10
2011,08,24,06,21,13.10
2011,08,24,06,22,13.10
2011,08,24,06,23,13.10
2011,08,24,06,24,13.10
2011,08,24,06,25,13.20
2011,08,24,06,26,13.20
2011,08,24,06,27,13.20
2011,08,24,06,28,13.20
2011,08,24,06,29,13.20
2011,08,24,06,30,13.20
2011,08,24,06,31,13.20
2011,08,24,06,32,13.30
2011,08,24,06,33,13.30
2011,08,24,06,34,13.30
2011,08,24,06,35,13.30
2011,08,24,06,36,13.30
2011,08,24,06,37,13.30
2011,08,24,06,38,13.30
2011,08,24,06,39,13.30
2011,08,24,06,40,13.30
2011,08,24,06,41,13.30
2011,08,24,06,42,13.30
2011,08,24,06,43,13.30
2011,08,24,06,44,13.30
2011,08,24,06,45,13.30
2011,08,24,06,46,13.30
2011,08,24,06,47,13.40
2011,08,24,06,48,13.40
2011,08,24,06,49,13.40
2011,08,24,06,50,13.40
2011,08,24,06,51,13.40
2011,08,24,06,52,13.40
2011,08,24,06,53,13.50
2011,08,24,06,54,13.50
2011,08,24,06,55,13.50
2011,08,24,06,56,13.50
2011,08,24,06,57,13.50
2011,08,24,06,58,13.50
2011,08,24,06,59,13.50
2011,08,24,07,00,13.50
2011,08,24,07,01,13.50
2011,08,24,07,02,13.50
2011,08,24,07,03,13.60
2011,08,24,07,04,13.60
2011,08,24,07,05,13.60
2011,08,24,07,06,13.60
2011,08,24,07,07,13.60
2011,08,24,07,08,13.60
2011,08,24,07,09,13.60
2011,08,24,07,10,13.60
2011,08,24,07,11,13.60
2011,08,24,07,12,13.60
2011,08,24,07,13,13.60
2011,08,24,07,14,13.70
2011,08,24,07,15,13.70
2011,08,24,07,16,13.70
2011,08,24,07,17,13.70
2011,08,24,07,18,13.70
2011,08,24,07,19,13.70
2011,08,24,07,20,13.70
2011,08,24,07,21,13.70
2011,08,24,07,22,13.70
2011,08,24,07,23,13.70
2011,08,24,07,24,13.70
2011,08,24,07,25,13.70
2011,08,24,07,26,13.80
2011,08,24,07,27,13.80
2011,08,24,07,28,13.80
2011,08,24,07,29,13.80
2011,08,24,07,30,13.80
2011,08,24,07,31,13.80
2011,08,24,07,32,13.90
2011,08,24,07,33,13.90
2011,08,24,07,34,13.80
2011,08,24,07,35,13.80
2011,08,24,07,36,13.80
2011,08,24,07,37,13.80
2011,08,24,07,38,13.90
2011,08,24,07,39,13.90
2011,08,24,07,40,13.90
2011,08,24,07,41,13.90
2011,08,24,07,42,13.90
2011,08,24,07,43,13.90
2011,08,24,07,44,13.90
2011,08,24,07,45,13.90
2011,08,24,07,46,14.00
2011,08,24,07,47,14.00
2011,08,24,07,48,14.00
2011,08,24,07,49,14.00
2011,08,24,07,50,14.00
2011,08,24,07,51,14.10
2011,08,24,07,52,14.10
2011,08,24,07,53,14.10
2011,08,24,07,54,14.10
2011,08,24,07,55,14.10
2011,08,24,07,56,14.20
2011,08,24,07,57,14.20
2011,08,24,07,58,14.20
2011,08,24,07,59,14.20
2011,08,24,08,00,14.20
2011,08,24,08,01,14.20
2011,08,24,08,02,14.20
2011,08,24,08,03,14.20
2011,08,24,08,04,14.20
2011,08,24,08,05,14.20
2011,08,24,08,06,14.20
2011,08,24,08,07,14.20
2011,08,24,08,08,14.20
2011,08,24,08,09,14.20
2011,08,24,08,10,14.20
2011,08,24,08,11,14.20
2011,08,24,08,12,14.20
2011,08,24,08,13,14.20
2011,08,24,08,14,14.20
2011,08,24,08,15,14.20
2011,08,24,08,16,14.20
2011,08,24,08,17,14.30
2011,08,24,08,18,14.30
2011,08,24,08,19,14.30
2011,08,24,08,20,14.30
2011,08,24,08,21,14.30
2011,08,24,08,22,14.30
2011,08,24,08,23,14.30
2011,08,24,08,24,14.40
2011,08,24,08,25,14.40
2011,08,24,08,26,14.40
2011,08,24,08,27,14.40
2011,08,24,08,28,14.40
2011,08,24,08,29,14.40
2011,08,24,08,30,14.50
2011,08,24,08,31,14.50
2011,08,24,08,32,14.50
2011,08,24,08,33,14.50
2011,08,24,08,34,14.50
2011,08,24,08,35,14.60
2011,08,24,08,36,14.60
2011,08,24,08,37,14.60
2011,08,24,08,38,14.60
2011,08,24,08,39,14.60
2011,08,24,08,40,14.70
2011,08,24,08,41,14.70
2011,08,24,08,42,14.70
2011,08,24,08,43,14.80
2011,08,24,08,44,14.80
2011,08,24,08,45,14.80
2011,08,24,08,46,14.80
2011,08,24,08,47,14.80
2011,08,24,08,48,14.80
2011,08,24,08,49,14.80
2011,08,24,08,50,14.80
2011,08,24,08,51,14.90
2011,08,24,08,52,14.90
2011,08,24,08,53,14.90
2011,08,24,08,54,14.90
2011,08,24,08,55,15.00
2011,08,24,08,56,15.00
2011,08,24,08,57,15.00
2011,08,24,08,58,15.10
2011,08,24,08,59,15.10
2011,08,24,09,00,15.10
2011,08,24,09,01,15.20
2011,08,24,09,02,15.20
2011,08,24,09,03,15.30
2011,08,24,09,04,15.30
2011,08,24,09,05,15.30
2011,08,24,09,06,15.30
2011,08,24,09,07,15.40
2011,08,24,09,08,15.40
2011,08,24,09,09,15.50
2011,08,24,09,10,15.50
2011,08,24,09,11,15.60
2011,08,24,09,12,15.60
2011,08,24,09,13,15.70
2011,08,24,09,14,15.80
2011,08,24,09,15,15.80
2011,08,24,09,16,15.80
2011,08,24,09,17,15.90
2011,08,24,09,18,15.90
2011,08,24,09,19,16.00
2011,08,24,09,20,16.10
2011,08,24,09,21,16.10
2011,08,24,09,22,16.20
2011,08,24,09,23,16.20
2011,08,24,09,24,16.30
2011,08,24,09,25,16.30
2011,08,24,09,26,16.30
2011,08,24,09,27,16.40
2011,08,24,09,28,16.40
2011,08,24,09,29,16.40
2011,08,24,09,30,16.50
2011,08,24,09,31,16.60
2011,08,24,09,32,16.60
2011,08,24,09,33,16.70
2011,08,24,09,34,16.70
2011,08,24,09,35,16.70
2011,08,24,09,36,16.70
2011,08,24,09,37,16.70
2011,08,24,09,38,16.70
2011,08,24,09,39,16.80
2011,08,24,09,40,16.80
2011,08,24,09,41,16.90
2011,08,24,09,42,16.90
2011,08,24,09,43,16.90
2011,08,24,09,44,17.00
2011,08,24,09,45,17.00
2011,08,24,09,46,17.00
2011,08,24,09,47,17.10
2011,08,24,09,48,17.10
2011,08,24,09,49,17.20
2011,08,24,09,50,17.20
2011,08,24,09,51,17.30
2011,08,24,09,52,17.30
2011,08,24,09,53,17.30
2011,08,24,09,54,17.30
2011,08,24,09,55,17.30
2011,08,24,09,56,17.30
2011,08,24,09,57,17.30
2011,08,24,09,58,17.30
2011,08,24,09,59,17.40
2011,08,24,10,00,17.40
2011,08,24,10,01,17.40
2011,08,24,10,02,17.40
2011,08,24,10,03,17.50
2011,08,24,10,04,17.50
2011,08,24,10,05,17.50
2011,08,24,10,06,17.50
2011,08,24,10,07,17.60
2011,08,24,10,08,17.60
2011,08,24,10,09,17.70
2011,08,24,10,10,17.70
2011,08,24,10,11,17.70
2011,08,24,10,12,17.70
2011,08,24,10,13,17.80
2011,08,24,10,14,17.80
2011,08,24,10,15,17.80
2011,08,24,10,16,17.90
2011,08,24,10,17,17.90
2011,08,24,10,18,17.90
2011,08,24,10,19,17.90
2011,08,24,10,20,18.00
2011,08,24,10,21,18.10
2011,08,24,10,22,18.10
2011,08,24,10,23,18.10
2011,08,24,10,24,18.20
2011,08,24,10,25,18.20
2011,08,24,10,26,18.20
2011,08,24,10,27,18.20
2011,08,24,10,28,18.20
2011,08,24,10,29,18.30
2011,08,24,10,30,18.30
2011,08,24,10,31,18.30
2011,08,24,10,32,18.40
2011,08,24,10,33,18.40
2011,08,24,10,34,18.50
2011,08,24,10,35,18.50
2011,08,24,10,36,18.50
2011,08,24,10,37,18.50
2011,08,24,10,38,18.50
2011,08,24,10,39,18.60
2011,08,24,10,40,18.60
2011,08,24,10,41,18.60
2011,08,24,10,42,18.70
2011,08,24,10,43,18.70
2011,08,24,10,44,18.70
2011,08,24,10,45,18.80
2011,08,24,10,46,18.80
2011,08,24,10,47,18.80
2011,08,24,10,48,18.90
2011,08,24,10,49,18.90
2011,08,24,10,50,18.90
2011,08,24,10,51,18.90
2011,08,24,10,52,18.90
2011,08,24,10,53,19.00
2011,08,24,10,54,19.10
2011,08,24,10,55,19.10
2011,08,24,10,56,19.10
2011,08,24,10,57,19.10
2011,08,24,10,58,19.20
2011,08,24,10,59,19.20
2011,08,24,11,00,19.30
2011,08,24,11,01,19.30
2011,08,24,11,02,19.30
2011,08,24,11,03,19.40
2011,08,24,11,04,19.40
2011,08,24,11,05,19.50
2011,08,24,11,06,19.50
2011,08,24,11,07,19.60
2011,08,24,11,08,19.60
2011,08,24,11,09,19.60
2011,08,24,11,10,19.70
2011,08,24,11,11,19.70
2011,08,24,11,12,19.80
2011,08,24,11,13,19.80
2011,08,24,11,14,19.90
2011,08,24,11,15,19.90
2011,08,24,11,16,19.90
2011,08,24,11,17,19.90
2011,08,24,11,18,19.90
2011,08,24,11,19,20.00
2011,08,24,11,20,20.10
2011,08,24,11,21,20.10
2011,08,24,11,22,20.10
2011,08,24,11,23,20.10
2011,08,24,11,24,20.10
2011,08,24,11,25,20.10
2011,08,24,11,26,20.20
2011,08,24,11,27,20.20
2011,08,24,11,28,20.20
2011,08,24,11,29,20.20
2011,08,24,11,30,20.20
2011,08,24,11,31,20.20
2011,08,24,11,32,20.20
2011,08,24,11,33,20.20
2011,08,24,11,34,20.20
2011,08,24,11,35,20.30
2011,08,24,11,36,20.30
2011,08,24,11,37,20.30
2011,08,24,11,38,20.30
2011,08,24,11,39,20.40
2011,08,24,11,40,20.40
2011,08,24,11,41,20.40
2011,08,24,11,42,20.50
2011,08,24,11,43,20.50
2011,08,24,11,44,20.50
2011,08,24,11,45,20.60
2011,08,24,11,46,20.60
2011,08,24,11,47,20.70
2011,08,24,11,48,20.70
2011,08,24,11,49,20.80
2011,08,24,11,50,20.80
2011,08,24,11,51,20.90
2011,08,24,11,52,20.90
2011,08,24,11,53,20.90
2011,08,24,11,54,21.00
2011,08,24,11,55,21.00
2011,08,24,11,56,21.00
2011,08,24,11,57,21.00
2011,08,24,11,58,21.10
2011,08,24,11,59,21.10
2011,08,24,12,00,21.10
2011,08,24,12,01,21.20
2011,08,24,12,02,21.20
2011,08,24,12,03,21.20
2011,08,24,12,04,21.20
2011,08,24,12,05,21.30
2011,08,24,12,06,21.30
2011,08,24,12,07,21.30
2011,08,24,12,08,21.30
2011,08,24,12,09,21.30
2011,08,24,12,10,21.30
2011,08,24,12,11,21.30
2011,08,24,12,12,21.30
2011,08,24,12,13,21.30
2011,08,24,12,14,21.30
2011,08,24,12,15,21.30
2011,08,24,12,16,21.30
2011,08,24,12,17,21.30
2011,08,24,12,18,21.40
2011,08,24,12,19,21.40
2011,08,24,12,20,21.50
2011,08,24,12,21,21.60
2011,08,24,12,22,21.60
2011,08,24,12,23,21.60
2011,08,24,12,24,21.60
2011,08,24,12,25,21.60
2011,08,24,12,26,21.60
2011,08,24,12,27,21.60
2011,08,24,12,28,21.60
2011,08,24,12,29,21.60
2011,08,24,12,30,21.60
2011,08,24,12,31,21.70
2011,08,24,12,32,21.70
2011,08,24,12,33,21.70
2011,08,24,12,34,21.70
2011,08,24,12,35,21.70
2011,08,24,12,36,21.70
2011,08,24,12,37,21.70
2011,08,24,12,38,21.70
2011,08,24,12,39,21.70
2011,08,24,12,40,21.70
2011,08,24,12,41,21.70
2011,08,24,12,42,21.60
2011,08,24,12,43,21.60
2011,08,24,12,44,21.60
2011,08,24,12,45,21.60
2011,08,24,12,46,21.70
2011,08,24,12,47,21.70
2011,08,24,12,48,21.80
2011,08,24,12,49,21.90
2011,08,24,12,50,21.90
2011,08,24,12,51,21.90
2011,08,24,12,52,21.90
2011,08,24,12,53,21.90
2011,08,24,12,54,21.90
2011,08,24,12,55,21.90
2011,08,24,12,56,21.90
2011,08,24,12,57,22.00
2011,08,24,12,58,22.00
2011,08,24,12,59,22.10
2011,08,24,13,00,22.10
2011,08,24,13,01,22.20
2011,08,24,13,02,22.20
2011,08,24,13,03,22.20
2011,08,24,13,04,22.20
2011,08,24,13,05,22.30
2011,08,24,13,06,22.30
2011,08,24,13,07,22.40
2011,08,24,13,08,22.40
2011,08,24,13,09,22.40
2011,08,24,13,10,22.40
2011,08,24,13,11,22.40
2011,08,24,13,12,22.40
2011,08,24,13,13,22.40
2011,08,24,13,14,22.30
2011,08,24,13,15,22.30
2011,08,24,13,16,22.30
2011,08,24,13,17,22.30
2011,08,24,13,18,22.30
2011,08,24,13,19,22.30
2011,08,24,13,20,22.30
2011,08,24,13,21,22.30
2011,08,24,13,22,22.30
2011,08,24,13,23,22.30
2011,08,24,13,24,22.30
2011,08,24,13,25,22.40
2011,08,24,13,26,22.40
2011,08,24,13,27,22.40
2011,08,24,13,28,22.50
2011,08,24,13,29,22.50
2011,08,24,13,30,22.50
2011,08,24,13,31,22.50
2011,08,24,13,32,22.60
2011,08,24,13,33,22.60
2011,08,24,13,34,22.60
2011,08,24,13,35,22.50
2011,08,24,13,36,22.50
2011,08,24,13,37,22.50
2011,08,24,13,38,22.50
2011,08,24,13,39,22.50
2011,08,24,13,40,22.50
2011,08,24,13,41,22.50
2011,08,24,13,42,22.50
2011,08,24,13,43,22.50
2011,08,24,13,44,22.50
2011,08,24,13,45,22.50
2011,08,24,13,46,22.60
2011,08,24,13,47,22.60
2011,08,24,13,48,22.70
2011,08,24,13,49,22.80
2011,08,24,13,50,22.90
2011,08,24,13,51,23.00
2011,08,24,13,52,23.20
2011,08,24,13,53,23.30
2011,08,24,13,54,23.30
2011,08,24,13,55,23.40
2011,08,24,13,56,23.50
2011,08,24,13,57,23.60
2011,08,24,13,58,23.70
2011,08,24,13,59,23.60
2011,08,24,14,00,23.60
2011,08,24,14,01,23.50
2011,08,24,14,02,23.40
2011,08,24,14,03,23.40
2011,08,24,14,04,23.40
2011,08,24,14,05,23.30
2011,08,24,14,06,23.30
2011,08,24,14,07,23.30
2011,08,24,14,08,23.30
2011,08,24,14,09,23.30
2011,08,24,14,10,23.30
2011,08,24,14,11,23.40
2011,08,24,14,12,23.30
2011,08,24,14,13,23.40
2011,08,24,14,14,23.40
2011,08,24,14,15,23.40
2011,08,24,14,16,23.40
2011,08,24,14,17,23.40
2011,08,24,14,18,23.40
2011,08,24,14,19,23.30
2011,08,24,14,20,23.30
2011,08,24,14,21,23.40
2011,08,24,14,22,23.40
2011,08,24,14,23,23.40
2011,08,24,14,24,23.40
2011,08,24,14,25,23.50
2011,08,24,14,26,23.50
2011,08,24,14,27,23.40
2011,08,24,14,28,23.40
2011,08,24,14,29,23.40
2011,08,24,14,30,23.40
2011,08,24,14,31,23.30
2011,08,24,14,32,23.30
2011,08,24,14,33,23.30
2011,08,24,14,34,23.30
2011,08,24,14,35,23.30
2011,08,24,14,36,23.30
2011,08,24,14,37,23.30
2011,08,24,14,38,23.30
2011,08,24,14,39,23.30
2011,08,24,14,40,23.30
2011,08,24,14,41,23.30
2011,08,24,14,42,23.40
2011,08,24,14,43,23.40
2011,08,24,14,44,23.30
2011,08,24,14,45,23.30
2011,08,24,14,46,23.30
2011,08,24,14,47,23.30
2011,08,24,14,48,23.30
2011,08,24,14,49,23.30
2011,08,24,14,50,23.30
2011,08,24,14,51,23.30
2011,08,24,14,52,23.20
2011,08,24,14,53,23.20
2011,08,24,14,54,23.20
2011,08,24,14,55,23.20
2011,08,24,14,56,23.20
2011,08,24,14,57,23.10
2011,08,24,14,58,23.10
2011,08,24,14,59,23.10
2011,08,24,15,00,23.10
2011,08,24,15,01,22.90
2011,08,24,15,02,22.90
2011,08,24,15,03,22.90
2011,08,24,15,04,22.90
2011,08,24,15,05,22.90
2011,08,24,15,06,22.90
2011,08,24,15,07,22.90
2011,08,24,15,08,22.80
2011,08,24,15,09,22.80
2011,08,24,15,10,22.80
2011,08,24,15,11,22.80
2011,08,24,15,12,22.70
2011,08,24,15,13,22.70
2011,08,24,15,14,22.70
2011,08,24,15,15,22.70
2011,08,24,15,16,22.70
2011,08,24,15,17,22.70
2011,08,24,15,18,22.70
2011,08,24,15,19,22.70
2011,08,24,15,20,22.70
2011,08,24,15,21,22.70
2011,08,24,15,22,22.70
2011,08,24,15,23,22.70
2011,08,24,15,24,22.70
2011,08,24,15,25,22.70
2011,08,24,15,26,22.70
2011,08,24,15,27,22.70
2011,08,24,15,28,22.80
2011,08,24,15,29,22.80
2011,08,24,15,30,22.80
2011,08,24,15,31,22.90
2011,08,24,15,32,22.90
2011,08,24,15,33,22.90
2011,08,24,15,34,22.90
2011,08,24,15,35,22.90
2011,08,24,15,36,22.90
2011,08,24,15,37,22.90
2011,08,24,15,38,22.90
2011,08,24,15,39,22.90
2011,08,24,15,40,22.90
2011,08,24,15,41,22.90
2011,08,24,15,42,22.90
2011,08,24,15,43,22.90
2011,08,24,15,44,22.90
2011,08,24,15,45,22.90
2011,08,24,15,46,22.90
2011,08,24,15,47,22.90
2011,08,24,15,48,22.90
2011,08,24,15,49,22.90
2011,08,24,15,50,22.90
2011,08,24,15,51,22.90
2011,08,24,15,52,22.90
2011,08,24,15,53,22.90
2011,08,24,15,54,22.90
2011,08,24,15,55,23.00
2011,08,24,15,56,23.10
2011,08,24,15,57,23.10
2011,08,24,15,58,23.10
2011,08,24,15,59,23.10
2011,08,24,16,00,23.10
2011,08,24,16,01,23.10
2011,08,24,16,02,23.10
2011,08,24,16,03,23.10
2011,08,24,16,04,23.10
2011,08,24,16,05,23.10
2011,08,24,16,06,23.20
2011,08,24,16,07,23.20
2011,08,24,16,08,23.30
2011,08,24,16,09,23.30
2011,08,24,16,10,23.30
2011,08,24,16,11,23.30
2011,08,24,16,12,23.30
2011,08,24,16,13,23.30
2011,08,24,16,14,23.30
2011,08,24,16,15,23.30
2011,08,24,16,16,23.20
2011,08,24,16,17,23.20
2011,08,24,16,18,23.20
2011,08,24,16,19,23.20
2011,08,24,16,20,23.10
2011,08,24,16,21,23.10
2011,08,24,16,22,23.10
2011,08,24,16,23,23.10
2011,08,24,16,24,23.10
2011,08,24,16,25,23.10
2011,08,24,16,26,23.10
2011,08,24,16,27,23.10
2011,08,24,16,28,23.10
2011,08,24,16,29,23.10
2011,08,24,16,30,23.10
2011,08,24,16,31,23.10
2011,08,24,16,32,23.20
2011,08,24,16,33,23.20
2011,08,24,16,34,23.20
2011,08,24,16,35,23.20
2011,08,24,16,36,23.30
2011,08,24,16,37,23.30
2011,08,24,16,38,23.30
2011,08,24,16,39,23.30
2011,08,24,16,40,23.30
2011,08,24,16,41,23.30
2011,08,24,16,42,23.30
2011,08,24,16,43,23.30
2011,08,24,16,44,23.30
2011,08,24,16,45,23.30
2011,08,24,16,46,23.30
2011,08,24,16,47,23.30
2011,08,24,16,48,23.30
2011,08,24,16,49,23.30
2011,08,24,16,50,23.30
2011,08,24,16,51,23.30
2011,08,24,16,52,23.30
2011,08,24,16,53,23.30
2011,08,24,16,54,23.30
2011,08,24,16,55,23.30
2011,08,24,16,56,23.30
2011,08,24,16,57,23.30
2011,08,24,16,58,23.40
2011,08,24,16,59,23.40
2011,08,24,17,00,23.40
2011,08,24,17,01,23.40
2011,08,24,17,02,23.40
2011,08,24,17,03,23.40
2011,08,24,17,04,23.50
2011,08,24,17,05,23.60
2011,08,24,17,06,23.60
2011,08,24,17,07,23.60
2011,08,24,17,08,23.60
2011,08,24,17,09,23.60
2011,08,24,17,10,23.60
2011,08,24,17,11,23.60
2011,08,24,17,12,23.60
2011,08,24,17,13,23.60
2011,08,24,17,14,23.70
2011,08,24,17,15,23.70
2011,08,24,17,16,23.70
2011,08,24,17,17,23.70
2011,08,24,17,18,23.70
2011,08,24,17,19,23.70